PWSweather.com
Personal Weather Stations
Station Observations
KMIEASTT1
Tawas Bay, East Tawas, MI 48730

Tawas BayEast Tawas, MI 48730

Lat: 44.28, Lon: -83.48

Elevation: 600

Station Type: Davis VantagePro

http://www.tawasbayweather.com

Latest ConditionsUpdated 10:30:13 AM EDT Friday, Oct 24, 2014
Currently Today's Max Today's Min Today's Average
Temperature 46.4°F8.0°C 46.4°F8.0°C 32.7°F0.4°C 39.3°F4.1°C
Dew Point 42.5°F5.8°C 44.9°F7.2°C 31.6°F-0.2°C 37.9°F3.3°C
Winds 2.0 mph SW3.2 kmh SW 4.0 mph SW6.4 kmh SW - 0.9 mph 1.4 kmh
Wind Gusts 3.0 mph4.8 kmh 5.0 mph8.0 kmh - -
Humidity 86% 97% 86% 95%
Pressure 30.07 in1018.3 mb 30.13 in1020.3 mb 30.07 in1018.3 mb -
Hour Temp Dew Point Humidity Winds Wind Gusts Pressure Precip Precip Rate Daily Precip Total
10:30 AM 46.4°F8.0°C 42.5°F5.8°C 86% 2.0 mph SW3.2 kmh SW 3.0 mph4.8 kmh 30.07 in1018.3 mb 0.00 in0.0 mm 0.00 in/hr0.0 mm/hr 0.00 in0.0 mm
10:15 AM 46.3°F7.9°C 42.4°F5.8°C 86% 4.0 mph SW6.4 kmh SW 4.0 mph6.4 kmh 30.07 in1018.3 mb 0.00 in0.0 mm 0.00 in/hr0.0 mm/hr 0.00 in0.0 mm
10:00 AM 46.1°F7.8°C 42.2°F5.7°C 86% 3.0 mph SW4.8 kmh SW 4.0 mph6.4 kmh 30.07 in1018.3 mb 0.00 in0.0 mm 0.00 in/hr0.0 mm/hr 0.00 in0.0 mm
09:45 AM 45.5°F7.5°C 42.5°F5.8°C 89% 2.0 mph WSW3.2 kmh WSW 5.0 mph8.0 kmh 30.07 in1018.3 mb 0.00 in0.0 mm 0.00 in/hr0.0 mm/hr 0.00 in0.0 mm
09:30 AM 45.1°F7.3°C 43.2°F6.2°C 93% Calm Calm 2.0 mph3.2 kmh 30.08 in1018.6 mb 0.00 in0.0 mm 0.00 in/hr0.0 mm/hr 0.00 in0.0 mm
09:15 AM 45.4°F7.4°C 43.2°F6.2°C 92% Calm Calm 2.0 mph3.2 kmh 30.08 in1018.6 mb 0.00 in0.0 mm 0.00 in/hr0.0 mm/hr 0.00 in0.0 mm
09:00 AM 46.2°F7.9°C 44.9°F7.2°C 95% 2.0 mph S3.2 kmh S 3.0 mph4.8 kmh 30.08 in1018.6 mb 0.00 in0.0 mm 0.00 in/hr0.0 mm/hr 0.00 in0.0 mm
08:45 AM 45.2°F7.3°C 43.9°F6.6°C 95% 2.0 mph WSW3.2 kmh WSW 2.0 mph3.2 kmh 30.08 in1018.6 mb 0.00 in0.0 mm 0.00 in/hr0.0 mm/hr 0.00 in0.0 mm
08:30 AM 44.0°F6.7°C 42.9°F6.1°C 96% 2.0 mph WSW3.2 kmh WSW 2.0 mph3.2 kmh 30.07 in1018.3 mb 0.00 in0.0 mm 0.00 in/hr0.0 mm/hr 0.00 in0.0 mm
08:15 AM 42.2°F5.7°C 41.4°F5.2°C 97% Calm Calm 2.0 mph3.2 kmh 30.08 in1018.6 mb 0.00 in0.0 mm 0.00 in/hr0.0 mm/hr 0.00 in0.0 mm
08:00 AM 40.9°F4.9°C 39.9°F4.4°C 96% Calm Calm -- 30.08 in1018.6 mb 0.00 in0.0 mm 0.00 in/hr0.0 mm/hr 0.00 in0.0 mm
07:45 AM 40.6°F4.8°C 39.6°F4.2°C 96% 1.0 mph NW1.6 kmh NW 1.0 mph1.6 kmh 30.08 in1018.6 mb 0.00 in0.0 mm 0.00 in/hr0.0 mm/hr 0.00 in0.0 mm
07:30 AM 40.4°F4.7°C 39.1°F3.9°C 95% Calm Calm -- 30.08 in1018.6 mb 0.00 in0.0 mm 0.00 in/hr0.0 mm/hr 0.00 in0.0 mm
07:15 AM 40.1°F4.5°C 38.8°F3.8°C 95% Calm Calm -- 30.09 in1019.0 mb 0.00 in0.0 mm 0.00 in/hr0.0 mm/hr 0.00 in0.0 mm
07:00 AM 40.3°F4.6°C 38.7°F3.7°C 94% 2.0 mph NW3.2 kmh NW 2.0 mph3.2 kmh 30.09 in1019.0 mb 0.00 in0.0 mm 0.00 in/hr0.0 mm/hr 0.00 in0.0 mm
06:45 AM 41.0°F5.0°C 39.7°F4.3°C 95% Calm Calm -- 30.09 in1019.0 mb 0.00 in0.0 mm 0.00 in/hr0.0 mm/hr 0.00 in0.0 mm
06:30 AM 40.6°F4.8°C 39.0°F3.9°C 94% Calm Calm 1.0 mph1.6 kmh 30.09 in1019.0 mb 0.00 in0.0 mm 0.00 in/hr0.0 mm/hr 0.00 in0.0 mm
06:15 AM 40.9°F4.9°C 39.6°F4.2°C 95% Calm Calm 1.0 mph1.6 kmh 30.09 in1019.0 mb 0.00 in0.0 mm 0.00 in/hr0.0 mm/hr 0.00 in0.0 mm
06:00 AM 40.7°F4.8°C 39.7°F4.3°C 96% 1.0 mph NW1.6 kmh NW 2.0 mph3.2 kmh 30.09 in1019.0 mb 0.00 in0.0 mm 0.00 in/hr0.0 mm/hr 0.00 in0.0 mm
05:45 AM 40.5°F4.7°C 39.5°F4.2°C 96% Calm Calm 1.0 mph1.6 kmh 30.09 in1019.0 mb 0.00 in0.0 mm 0.00 in/hr0.0 mm/hr 0.00 in0.0 mm
05:30 AM 40.4°F4.7°C 39.4°F4.1°C 96% Calm Calm 1.0 mph1.6 kmh 30.09 in1019.0 mb 0.00 in0.0 mm 0.00 in/hr0.0 mm/hr 0.00 in0.0 mm
05:15 AM 40.1°F4.5°C 39.1°F3.9°C 96% 1.0 mph NNW1.6 kmh NNW 1.0 mph1.6 kmh 30.09 in1019.0 mb 0.00 in0.0 mm 0.00 in/hr0.0 mm/hr 0.00 in0.0 mm
05:00 AM 39.8°F4.3°C 38.8°F3.8°C 96% 1.0 mph NNW1.6 kmh NNW 2.0 mph3.2 kmh 30.09 in1019.0 mb 0.00 in0.0 mm 0.00 in/hr0.0 mm/hr 0.00 in0.0 mm
04:45 AM 39.5°F4.2°C 38.5°F3.6°C 96% 2.0 mph NNW3.2 kmh NNW 2.0 mph3.2 kmh 30.09 in1019.0 mb 0.00 in0.0 mm 0.00 in/hr0.0 mm/hr 0.00 in0.0 mm
04:30 AM 39.2°F4.0°C 38.2°F3.4°C 96% 1.0 mph NNW1.6 kmh NNW 2.0 mph3.2 kmh 30.08 in1018.6 mb 0.00 in0.0 mm 0.00 in/hr0.0 mm/hr 0.00 in0.0 mm
04:15 AM 39.1°F3.9°C 38.1°F3.4°C 96% 1.0 mph NNW1.6 kmh NNW 2.0 mph3.2 kmh 30.09 in1019.0 mb 0.00 in0.0 mm 0.00 in/hr0.0 mm/hr 0.00 in0.0 mm
04:00 AM 39.1°F3.9°C 38.3°F3.5°C 97% Calm Calm 1.0 mph1.6 kmh 30.08 in1018.6 mb 0.00 in0.0 mm 0.00 in/hr0.0 mm/hr 0.00 in0.0 mm
03:45 AM 38.6°F3.7°C 37.8°F3.2°C 97% Calm Calm -- 30.09 in1019.0 mb 0.00 in0.0 mm 0.00 in/hr0.0 mm/hr 0.00 in0.0 mm
03:30 AM 37.5°F3.1°C 36.7°F2.6°C 97% 1.0 mph NNW1.6 kmh NNW 2.0 mph3.2 kmh 30.09 in1019.0 mb 0.00 in0.0 mm 0.00 in/hr0.0 mm/hr 0.00 in0.0 mm
03:15 AM 36.4°F2.4°C 35.6°F2.0°C 97% Calm Calm 2.0 mph3.2 kmh 30.10 in1019.3 mb 0.00 in0.0 mm 0.00 in/hr0.0 mm/hr 0.00 in0.0 mm
03:00 AM 35.8°F2.1°C 35.0°F1.7°C 97% 1.0 mph N1.6 kmh N 2.0 mph3.2 kmh 30.11 in1019.6 mb 0.00 in0.0 mm 0.00 in/hr0.0 mm/hr 0.00 in0.0 mm
02:45 AM 35.1°F1.7°C 34.3°F1.3°C 97% Calm Calm 2.0 mph3.2 kmh 30.11 in1019.6 mb 0.00 in0.0 mm 0.00 in/hr0.0 mm/hr 0.00 in0.0 mm
02:30 AM 34.3°F1.3°C 33.5°F0.8°C 97% Calm Calm 2.0 mph3.2 kmh 30.11 in1019.6 mb 0.00 in0.0 mm 0.00 in/hr0.0 mm/hr 0.00 in0.0 mm
02:15 AM 33.5°F0.8°C 32.5°F0.3°C 96% 2.0 mph N3.2 kmh N 3.0 mph4.8 kmh 30.12 in1020.0 mb 0.00 in0.0 mm 0.00 in/hr0.0 mm/hr 0.00 in0.0 mm
02:00 AM 32.7°F0.4°C 31.7°F-0.2°C 96% 2.0 mph N3.2 kmh N 3.0 mph4.8 kmh 30.11 in1019.6 mb 0.00 in0.0 mm 0.00 in/hr0.0 mm/hr 0.00 in0.0 mm
01:45 AM 32.9°F0.5°C 31.6°F-0.2°C 95% 2.0 mph N3.2 kmh N 3.0 mph4.8 kmh 30.12 in1020.0 mb 0.00 in0.0 mm 0.00 in/hr0.0 mm/hr 0.00 in0.0 mm
01:30 AM 33.7°F0.9°C 32.4°F0.2°C 95% 3.0 mph N4.8 kmh N 4.0 mph6.4 kmh 30.12 in1020.0 mb 0.00 in0.0 mm 0.00 in/hr0.0 mm/hr 0.00 in0.0 mm
01:15 AM 33.8°F1.0°C 32.8°F0.4°C 96% Calm Calm 1.0 mph1.6 kmh 30.12 in1020.0 mb 0.00 in0.0 mm 0.00 in/hr0.0 mm/hr 0.00 in0.0 mm
01:00 AM 34.2°F1.2°C 32.9°F0.5°C 95% Calm Calm 2.0 mph3.2 kmh 30.12 in1020.0 mb 0.00 in0.0 mm 0.00 in/hr0.0 mm/hr 0.00 in0.0 mm
12:45 AM 33.8°F1.0°C 32.5°F0.3°C 95% Calm Calm -- 30.13 in1020.3 mb 0.00 in0.0 mm 0.00 in/hr0.0 mm/hr 0.00 in0.0 mm
12:30 AM 33.8°F1.0°C 32.5°F0.3°C 95% Calm Calm 1.0 mph1.6 kmh 30.13 in1020.3 mb 0.00 in0.0 mm 0.00 in/hr0.0 mm/hr 0.00 in0.0 mm
12:15 AM 34.8°F1.6°C 33.5°F0.8°C 95% 1.0 mph N1.6 kmh N 1.0 mph1.6 kmh 30.13 in1020.3 mb 0.00 in0.0 mm 0.00 in/hr0.0 mm/hr 0.00 in0.0 mm
12:00 AM 34.2°F1.2°C 32.9°F0.5°C 95% 1.0 mph N1.6 kmh N 3.0 mph4.8 kmh 30.13 in1020.3 mb 0.00 in0.0 mm 0.00 in/hr0.0 mm/hr 0.00 in0.0 mm